Time,TemperatureF,DewpointF,PressureIn,WindDirection,WindDirectionDegrees,WindSpeedMPH,WindSpeedGustMPH,Humidity,HourlyPrecipIn,Conditions,Clouds,dailyrainin,SoftwareType,DateUTC
2013-03-31 00:04:00,54.2,49.8,29.87,NNE,23,0.2,0.2,85,0.00,,,0.00,WUHU216HW,2013-03-31 05:04:00,
2013-03-31 00:30:00,53.6,49.2,29.88,NNE,23,0.0,0.0,85,0.00,,,0.00,WUHU216HW,2013-03-31 05:30:00,
2013-03-31 00:35:00,53.6,49.2,29.88,NNE,23,0.0,0.0,85,0.00,,,0.00,WUHU216HW,2013-03-31 05:35:00,
2013-03-31 00:59:00,52.9,48.8,29.89,NNE,23,0.0,0.0,86,0.00,,,0.00,WUHU216HW,2013-03-31 05:59:00,
2013-03-31 01:04:00,52.9,48.8,29.89,NNE,23,0.0,0.0,86,0.00,,,0.00,WUHU216HW,2013-03-31 06:04:00,
2013-03-31 01:30:00,52.6,48.4,29.89,NNE,23,0.0,0.0,86,0.00,,,0.00,WUHU216HW,2013-03-31 06:30:00,
2013-03-31 01:35:00,52.6,48.4,29.89,NNE,23,0.0,0.0,86,0.00,,,0.00,WUHU216HW,2013-03-31 06:35:00,
2013-03-31 01:59:00,52.2,48.1,29.90,NNE,23,0.0,0.0,86,0.00,,,0.00,WUHU216HW,2013-03-31 06:59:00,
2013-03-31 02:05:00,52.2,48.1,29.90,NNE,23,0.0,0.0,86,0.00,,,0.00,WUHU216HW,2013-03-31 07:05:00,
2013-03-31 02:30:00,51.8,47.7,29.90,NNE,23,0.0,0.0,86,0.00,,,0.00,WUHU216HW,2013-03-31 07:30:00,
2013-03-31 02:35:00,51.8,47.7,29.90,NNE,23,0.0,0.0,86,0.00,,,0.00,WUHU216HW,2013-03-31 07:35:00,
2013-03-31 02:59:00,51.5,47.7,29.93,West,270,1.8,1.8,87,0.00,,,0.00,WUHU216HW,2013-03-31 07:59:00,
2013-03-31 03:04:00,51.5,47.7,29.93,West,270,1.8,1.8,87,0.00,,,0.00,WUHU216HW,2013-03-31 08:04:00,
2013-03-31 03:30:00,51.1,47.4,29.92,WNW,293,0.7,0.7,87,0.00,,,0.00,WUHU216HW,2013-03-31 08:30:00,
2013-03-31 03:35:00,51.1,47.4,29.92,WNW,293,0.7,0.7,87,0.00,,,0.00,WUHU216HW,2013-03-31 08:35:00,
2013-03-31 03:59:00,50.9,47.2,29.91,WNW,293,0.0,0.0,87,0.00,,,0.00,WUHU216HW,2013-03-31 08:59:00,
2013-03-31 04:05:00,50.9,47.2,29.91,WNW,293,0.0,0.0,87,0.00,,,0.00,WUHU216HW,2013-03-31 09:05:00,
2013-03-31 04:30:00,50.8,46.6,29.88,SSW,203,0.2,0.2,86,0.00,,,0.00,WUHU216HW,2013-03-31 09:30:00,
2013-03-31 04:35:00,50.8,46.6,29.88,SSW,203,0.2,0.2,86,0.00,,,0.00,WUHU216HW,2013-03-31 09:35:00,
2013-03-31 04:59:00,50.0,45.4,29.89,West,270,0.9,0.9,84,0.00,,,0.00,WUHU216HW,2013-03-31 09:59:00,
2013-03-31 05:04:00,50.0,45.4,29.89,West,270,0.9,0.9,84,0.00,,,0.00,WUHU216HW,2013-03-31 10:04:00,
2013-03-31 05:30:00,49.3,44.0,29.90,WNW,293,1.3,1.3,82,0.00,,,0.00,WUHU216HW,2013-03-31 10:30:00,
2013-03-31 05:35:00,49.3,44.0,29.90,WNW,293,1.3,1.3,82,0.00,,,0.00,WUHU216HW,2013-03-31 10:35:00,
2013-03-31 06:00:00,48.6,43.3,29.91,WNW,293,0.0,0.0,82,0.00,,,0.00,WUHU216HW,2013-03-31 11:00:00,
2013-03-31 06:05:00,48.6,43.3,29.91,WNW,293,0.0,0.0,82,0.00,,,0.00,WUHU216HW,2013-03-31 11:05:00,
2013-03-31 06:30:00,47.5,41.9,29.91,WNW,293,0.0,0.0,81,0.00,,,0.00,WUHU216HW,2013-03-31 11:30:00,
2013-03-31 06:35:00,47.5,41.9,29.91,WNW,293,0.0,0.0,81,0.00,,,0.00,WUHU216HW,2013-03-31 11:35:00,
2013-03-31 07:00:00,45.2,40.3,29.91,WNW,293,0.0,0.0,83,0.00,,,0.00,WUHU216HW,2013-03-31 12:00:00,
2013-03-31 07:05:00,45.2,40.3,29.91,WNW,293,0.0,0.0,83,0.00,,,0.00,WUHU216HW,2013-03-31 12:05:00,
2013-03-31 07:30:00,45.0,40.8,29.92,WNW,293,0.0,0.0,85,0.00,,,0.00,WUHU216HW,2013-03-31 12:30:00,
2013-03-31 07:35:00,45.0,40.8,29.92,WNW,293,0.0,0.0,85,0.00,,,0.00,WUHU216HW,2013-03-31 12:35:00,
2013-03-31 07:59:00,45.7,41.5,29.92,WNW,293,0.2,0.2,85,0.00,,,0.00,WUHU216HW,2013-03-31 12:59:00,
2013-03-31 08:04:00,45.7,41.5,29.92,WNW,293,0.2,0.2,85,0.00,,,0.00,WUHU216HW,2013-03-31 13:04:00,
2013-03-31 08:29:00,47.5,43.6,29.91,West,270,0.2,0.2,86,0.00,,,0.00,WUHU216HW,2013-03-31 13:29:00,
2013-03-31 08:34:00,47.5,43.6,29.91,West,270,0.2,0.2,86,0.00,,,0.00,WUHU216HW,2013-03-31 13:34:00,
2013-03-31 08:59:00,50.0,45.4,29.91,WNW,293,0.0,0.0,84,0.00,,,0.00,WUHU216HW,2013-03-31 13:59:00,
2013-03-31 09:04:00,50.0,45.4,29.91,WNW,293,0.0,0.0,84,0.00,,,0.00,WUHU216HW,2013-03-31 14:04:00,
2013-03-31 09:29:00,52.6,45.9,29.91,North,0,0.0,0.0,78,0.00,,,0.00,WUHU216HW,2013-03-31 14:29:00,
2013-03-31 09:34:00,52.6,45.9,29.91,North,0,0.0,0.0,78,0.00,,,0.00,WUHU216HW,2013-03-31 14:34:00,
2013-03-31 09:59:00,54.4,45.9,29.91,WNW,293,0.7,0.7,73,0.00,,,0.00,WUHU216HW,2013-03-31 14:59:00,
2013-03-31 10:04:00,54.4,45.9,29.91,WNW,293,0.7,0.7,73,0.00,,,0.00,WUHU216HW,2013-03-31 15:04:00,
2013-03-31 10:29:00,56.3,45.1,29.90,WNW,293,3.4,3.4,66,0.00,,,0.00,WUHU216HW,2013-03-31 15:29:00,
2013-03-31 10:34:00,56.3,45.1,29.90,WNW,293,3.4,3.4,66,0.00,,,0.00,WUHU216HW,2013-03-31 15:34:00,
2013-03-31 10:59:00,58.1,44.8,29.90,WSW,248,3.8,3.8,61,0.00,,,0.00,WUHU216HW,2013-03-31 15:59:00,
2013-03-31 11:04:00,58.1,44.8,29.90,WSW,248,3.8,3.8,61,0.00,,,0.00,WUHU216HW,2013-03-31 16:04:00,
2013-03-31 11:29:00,60.7,43.9,29.90,West,270,4.0,4.0,54,0.00,,,0.00,WUHU216HW,2013-03-31 16:29:00,
2013-03-31 11:34:00,60.7,43.9,29.90,West,270,4.0,4.0,54,0.00,,,0.00,WUHU216HW,2013-03-31 16:34:00,
2013-03-31 11:39:00,60.7,43.9,29.90,West,270,4.0,4.0,54,0.00,,,0.00,WUHU216HW,2013-03-31 16:39:00,
2013-03-31 11:59:00,61.7,44.9,29.90,WNW,293,2.5,2.5,54,0.00,,,0.00,WUHU216HW,2013-03-31 16:59:00,
2013-03-31 12:04:00,61.7,44.9,29.90,WNW,293,2.5,2.5,54,0.00,,,0.00,WUHU216HW,2013-03-31 17:04:00,
2013-03-31 12:29:00,63.4,44.4,29.90,WNW,293,5.4,5.4,50,0.00,,,0.00,WUHU216HW,2013-03-31 17:29:00,
2013-03-31 12:35:00,63.4,44.4,29.90,WNW,293,5.4,5.4,50,0.00,,,0.00,WUHU216HW,2013-03-31 17:35:00,
2013-03-31 12:59:00,63.5,44.0,29.91,NW,315,1.1,1.1,49,0.00,,,0.00,WUHU216HW,2013-03-31 17:59:00,
2013-03-31 13:00:00,63.5,44.0,29.91,NW,315,1.1,1.1,49,0.00,,,0.00,WUHU216HW,2013-03-31 18:00:00,
2013-03-31 13:04:00,63.5,44.0,29.91,NW,315,1.1,1.1,49,0.00,,,0.00,WUHU216HW,2013-03-31 18:04:00,
2013-03-31 13:30:00,65.0,44.2,29.91,West,270,5.1,5.1,47,0.00,,,0.00,WUHU216HW,2013-03-31 18:30:00,
2013-03-31 13:35:00,65.0,44.2,29.91,West,270,5.1,5.1,47,0.00,,,0.00,WUHU216HW,2013-03-31 18:35:00,
2013-03-31 13:59:00,66.4,44.9,29.90,NW,315,2.7,2.7,46,0.00,,,0.00,WUHU216HW,2013-03-31 18:59:00,
2013-03-31 14:04:00,66.4,44.9,29.90,NW,315,2.7,2.7,46,0.00,,,0.00,WUHU216HW,2013-03-31 19:04:00,
2013-03-31 14:29:00,67.9,43.8,29.90,West,270,4.5,4.5,42,0.00,,,0.00,WUHU216HW,2013-03-31 19:29:00,
2013-03-31 14:34:00,67.9,43.8,29.90,West,270,4.5,4.5,42,0.00,,,0.00,WUHU216HW,2013-03-31 19:34:00,
2013-03-31 14:40:00,67.9,43.8,29.90,West,270,4.5,4.5,42,0.00,,,0.00,WUHU216HW,2013-03-31 19:40:00,
2013-03-31 14:59:00,65.5,41.1,29.90,ENE,68,1.8,1.8,41,0.00,,,0.00,WUHU216HW,2013-03-31 19:59:00,
2013-03-31 15:04:00,65.5,41.1,29.90,ENE,68,1.8,1.8,41,0.00,,,0.00,WUHU216HW,2013-03-31 20:04:00,
2013-03-31 15:30:00,65.5,39.9,29.90,NNE,23,1.3,1.3,39,0.00,,,0.00,WUHU216HW,2013-03-31 20:30:00,
2013-03-31 15:35:00,65.5,39.9,29.90,NNE,23,1.3,1.3,39,0.00,,,0.00,WUHU216HW,2013-03-31 20:35:00,
2013-03-31 15:59:00,65.2,39.5,29.90,West,270,2.2,2.2,39,0.00,,,0.00,WUHU216HW,2013-03-31 20:59:00,
2013-03-31 16:04:00,65.2,39.5,29.90,West,270,2.2,2.2,39,0.00,,,0.00,WUHU216HW,2013-03-31 21:04:00,
2013-03-31 16:29:00,63.2,37.0,29.90,East,90,1.1,1.1,38,0.00,,,0.00,WUHU216HW,2013-03-31 21:29:00,
2013-03-31 16:34:00,63.2,37.0,29.90,East,90,1.1,1.1,38,0.00,,,0.00,WUHU216HW,2013-03-31 21:34:00,
2013-03-31 17:00:00,62.6,38.0,29.90,NNW,338,1.6,1.6,40,0.00,,,0.00,WUHU216HW,2013-03-31 22:00:00,
2013-03-31 17:05:00,62.6,38.0,29.90,NNW,338,1.6,1.6,40,0.00,,,0.00,WUHU216HW,2013-03-31 22:05:00,
2013-03-31 17:30:00,61.7,36.5,29.90,NNE,23,3.8,3.8,39,0.00,,,0.00,WUHU216HW,2013-03-31 22:30:00,
2013-03-31 17:35:00,61.7,36.5,29.90,NNE,23,3.8,3.8,39,0.00,,,0.00,WUHU216HW,2013-03-31 22:35:00,
2013-03-31 17:59:00,61.0,36.6,29.90,ENE,68,1.1,1.1,40,0.00,,,0.00,WUHU216HW,2013-03-31 22:59:00,
2013-03-31 18:04:00,61.0,36.6,29.90,ENE,68,1.1,1.1,40,0.00,,,0.00,WUHU216HW,2013-03-31 23:04:00,
2013-03-31 18:29:00,60.1,35.7,29.90,NNE,23,2.5,2.5,40,0.00,,,0.00,WUHU216HW,2013-03-31 23:29:00,
2013-03-31 18:34:00,60.1,35.7,29.90,NNE,23,2.5,2.5,40,0.00,,,0.00,WUHU216HW,2013-03-31 23:34:00,
2013-03-31 18:59:00,59.0,34.0,29.91,NNW,338,0.9,0.9,39,0.00,,,0.00,WUHU216HW,2013-03-31 23:59:00,
2013-03-31 19:04:00,59.0,34.0,29.91,NNW,338,0.9,0.9,39,0.00,,,0.00,WUHU216HW,2013-04-01 00:04:00,
2013-03-31 19:29:00,57.6,34.0,29.91,NNW,338,0.0,0.0,41,0.00,,,0.00,WUHU216HW,2013-04-01 00:29:00,
2013-03-31 19:34:00,57.6,34.0,29.91,NNW,338,0.0,0.0,41,0.00,,,0.00,WUHU216HW,2013-04-01 00:34:00,
2013-03-31 19:59:00,55.8,34.1,29.91,North,0,0.0,0.0,44,0.00,,,0.00,WUHU216HW,2013-04-01 00:59:00,
2013-03-31 20:04:00,55.8,34.1,29.91,North,0,0.0,0.0,44,0.00,,,0.00,WUHU216HW,2013-04-01 01:04:00,
2013-03-31 20:29:00,53.6,33.2,29.91,North,0,0.0,0.0,46,0.00,,,0.00,WUHU216HW,2013-04-01 01:29:00,
2013-03-31 20:34:00,53.6,33.2,29.91,North,0,0.0,0.0,46,0.00,,,0.00,WUHU216HW,2013-04-01 01:34:00,
2013-03-31 20:59:00,50.9,33.0,29.91,North,0,0.0,0.0,50,0.00,,,0.00,WUHU216HW,2013-04-01 01:59:00,
2013-03-31 21:04:00,50.9,33.0,29.91,North,0,0.0,0.0,50,0.00,,,0.00,WUHU216HW,2013-04-01 02:04:00,
2013-03-31 21:30:00,49.1,32.2,29.92,North,0,0.0,0.0,52,0.00,,,0.00,WUHU216HW,2013-04-01 02:30:00,
2013-03-31 21:35:00,49.1,32.2,29.92,North,0,0.0,0.0,52,0.00,,,0.00,WUHU216HW,2013-04-01 02:35:00,
2013-03-31 22:00:00,47.7,31.8,29.91,North,0,0.0,0.0,54,0.00,,,0.00,WUHU216HW,2013-04-01 03:00:00,
2013-03-31 22:05:00,47.7,31.8,29.91,North,0,0.0,0.0,54,0.00,,,0.00,WUHU216HW,2013-04-01 03:05:00,
2013-03-31 22:10:00,47.7,31.8,29.91,North,0,0.0,0.0,54,0.00,,,0.00,WUHU216HW,2013-04-01 03:10:00,
2013-03-31 22:30:00,45.9,32.0,29.91,North,0,0.0,0.0,58,0.00,,,0.00,WUHU216HW,2013-04-01 03:30:00,
2013-03-31 22:35:00,45.9,32.0,29.91,North,0,0.0,0.0,58,0.00,,,0.00,WUHU216HW,2013-04-01 03:35:00,
2013-03-31 22:59:00,45.4,31.9,29.93,North,0,0.0,0.0,59,0.00,,,0.00,WUHU216HW,2013-04-01 03:59:00,
2013-03-31 23:00:00,45.4,31.9,29.93,North,0,0.0,0.0,59,0.00,,,0.00,WUHU216HW,2013-04-01 04:00:00,
2013-03-31 23:05:00,45.4,31.9,29.93,North,0,0.0,0.0,59,0.00,,,0.00,WUHU216HW,2013-04-01 04:05:00,
2013-03-31 23:29:00,44.1,32.0,29.93,North,0,0.0,0.0,62,0.00,,,0.00,WUHU216HW,2013-04-01 04:29:00,
2013-03-31 23:30:00,44.1,32.0,29.93,North,0,0.0,0.0,62,0.00,,,0.00,WUHU216HW,2013-04-01 04:30:00,
2013-03-31 23:35:00,44.1,32.0,29.93,North,0,0.0,0.0,62,0.00,,,0.00,WUHU216HW,2013-04-01 04:35:00,
2013-03-31 23:59:00,43.2,31.4,29.94,North,0,1.8,1.8,63,0.00,,,0.00,WUHU216HW,2013-04-01 04:59:00,